This is the latest recevied weather packets stored in our database for station/object ac2ev. If no packets are shown the sender has not sent any weather packets the latest 10 day(s).
| Time | Temp. | Humidity | Pressure | Rain* | Wind** | Luminosity | Snow |
|---|---|---|---|---|---|---|---|
| 1787438582 | 27.22° C | 57% | 1008.1 hPa | 0 mm | - | - | - |
| 1787438282 | 27.22° C | 57% | 1008.1 hPa | 0 mm | - | - | - |
| 1787437983 | 27.22° C | 54% | 1008.1 hPa | 0 mm | - | - | - |
| 1787437682 | 27.22° C | 53% | 1008.1 hPa | 0 mm | - | - | - |
| 1787437382 | 27.22° C | 54% | 1008.1 hPa | 0 mm | - | - | - |
| 1787437083 | 27.22° C | 55% | 1008.1 hPa | 0 mm | - | - | - |
| 1787436782 | 27.78° C | 53% | 1008.2 hPa | 0 mm | - | - | - |
| 1787436485 | 27.78° C | 53% | 1008.3 hPa | 0 mm | - | - | - |
| 1787436182 | 27.78° C | 52% | 1008.3 hPa | 0 mm | - | - | - |
| 1787435881 | 27.78° C | 53% | 1008.3 hPa | 0 mm | - | - | - |
| 1787435579 | 28.33° C | 52% | 1008.2 hPa | 0 mm | - | - | - |
| 1787435279 | 28.33° C | 51% | 1008.2 hPa | 0 mm | - | - | - |
| 1787434980 | 28.33° C | 53% | 1008.2 hPa | 0 mm | - | - | - |
| 1787434679 | 28.33° C | 51% | 1008.4 hPa | 0 mm | - | - | - |
| 1787434375 | 28.89° C | 50% | 1008.5 hPa | 0 mm | - | - | - |
| 1787434074 | 28.89° C | 51% | 1008.7 hPa | 0 mm | - | - | - |
| 1787433771 | 28.89° C | 52% | 1008.8 hPa | 0 mm | - | - | - |
| 1787433471 | 28.89° C | 50% | 1008.8 hPa | 0 mm | - | - | - |
| 1787433171 | 28.89° C | 51% | 1008.9 hPa | 0 mm | - | - | - |
| 1787432865 | 28.89° C | 53% | 1009 hPa | 0 mm | - | - | - |
| 1787432560 | 28.33° C | 54% | 1009.1 hPa | 0 mm | - | - | - |
| 1787432260 | 28.33° C | 53% | 1009.1 hPa | 0 mm | - | - | - |
| 1787431957 | 28.33° C | 54% | 1009.2 hPa | 0 mm | - | - | - |
| 1787431655 | 27.78° C | 53% | 1009.2 hPa | 0 mm | - | - | - |
| 1787431355 | 27.78° C | 55% | 1009.3 hPa | 0 mm | - | - | - |
* Rain latest hour (hover to see other rain measurements)
** Current wind speed in m/s (hover to see current wind gust speed)